Regional Weather Roundup
Issued by NWS

Home | Current Version | Previous Version | Text Only | Print | Product List | Glossary Off
Versions: 1 2 3 4 5 6 7 8 9 10 11 12 13 14 15 16 17 18 19 20 21 22 23 24 25

000
ASUS45 KCYS 171810
RWRWY

WYOMING REGIONAL WEATHER ROUNDUP
NATIONAL WEATHER SERVICE CHEYENNE WY
1100 AM MST SAT FEB 17 2018

NOTE:  "FAIR" INDICATES FEW OR NO CLOUDS BELOW 12,000 FEET
WITH NO SIGNIFICANT WEATHER AND/OR OBSTRUCTIONS TO VISIBILITY.

WYZ001-171900-
YELLOWSTONE NATIONAL PARK

CITY           SKY/WX    TMP DP  RH WIND       PRES   REMARKS
LK YELLOWSTONE   N/A     20  16  84 CALM      29.92F
6HR MIN TEMP:  15; 6HR MAX TEMP:  20; 6HR PCP:  0.03;

W YELLOWSTONE  NOT AVBL

$$
WYZ002>013-054>058-071-098>099-171900-
NORTHERN WYOMING

CITY           SKY/WX    TMP DP  RH WIND       PRES   REMARKS
JACKSON        LGT SNOW  27  21  80 S31       29.99F WCI  10
CODY           FAIR      39  13  34 W14G22    29.85F WCI  31
GREYBULL       FAIR      27  19  72 SW3       29.94F
6HR MIN TEMP:  16; 6HR MAX TEMP:  27;

WORLAND        FAIR      21  11  65 CALM      29.93F
6HR MIN TEMP:   9; 6HR MAX TEMP:  21;

SHERIDAN       FAIR      29  21  72 CALM      29.90F
6HR MIN TEMP:  22; 6HR MAX TEMP:  29; 6HR PCP:  0.01;

BUFFALO        FAIR      27  21  78 SE10      29.89F WCI  17
6HR MIN TEMP:  21; 6HR MAX TEMP:  27;

GILLETTE       PTSUNNY   28  19  69 S14       29.93  WCI  17
6HR MIN TEMP:  22; 6HR MAX TEMP:  28;

HULETT         CLOUDY    28  19  69 SW10      29.95F WCI  19
NEWCASTLE      FAIR      30  18  59 CALM      30.02S

$$
WYZ014>020-022>026-101>103-171900-
CENTRAL WYOMING

CITY           SKY/WX    TMP DP  RH WIND       PRES   REMARKS
BIG PINEY      PTSUNNY   31  14  49 VRB5      30.04F WCI  26
6HR MIN TEMP:   5; 6HR MAX TEMP:  31;

PINEDALE       CLOUDY    30  18  59 NE3       30.06S
DUBOIS           N/A    N/A N/A N/A MISG        N/A
LANDER         FAIR      38  14  37 CALM      29.90F
6HR MIN TEMP:  23; 6HR MAX TEMP:  38;

RIVERTON       FAIR      33   9  36 E5        29.92F WCI  29
6HR MIN TEMP:  17; 6HR MAX TEMP:  33;

CASPER         FLURRIES  39  14  36 SW28G39   29.95F WCI  28
6HR MIN TEMP:  15; 6HR MAX TEMP:  39; 6HR PCP: TRACE;

DOUGLAS        FAIR      41  12  30 W28G37    29.96F
6HR MIN TEMP:  20; 6HR MAX TEMP:  41;


$$
WYZ021-027>030-104>119-171900-
SOUTHERN WYOMING

CITY           SKY/WX    TMP DP  RH WIND       PRES   REMARKS
EVANSTON       FAIR      34  17  50 SW23      30.12S WCI  22
6HR MIN TEMP:  22; 6HR MAX TEMP:  34;

ROCK SPRINGS   FAIR      32  13  45 SW21G33   30.08F WCI  20
6HR MIN TEMP:  26; 6HR MAX TEMP:  34;

DIXON          FAIR      31  15  52 S12       30.19F WCI  22
RAWLINS        PTSUNNY   34  13  41 SW32G44   30.06R WCI  20
6HR MIN TEMP:  21; 6HR MAX TEMP:  34;

SARATOGA       FAIR      32  14  47 SW28G40   30.10S WCI  18
LARAMIE        FAIR      33  13  43 W25G37    30.00F WCI  20
6HR MIN TEMP:  19; 6HR MAX TEMP:  33;

CHEYENNE       FAIR      39  10  30 W17G33    30.05S WCI  30
6HR MIN TEMP:  28; 6HR MAX TEMP:  39;

TORRINGTON     FAIR      42  15  33 W8        30.02F
6HR MIN TEMP:  31; 6HR MAX TEMP:  42;

PINE BLUFFS    FAIR      41   5  22 W35       30.05F

$$




USA.gov is the U.S. government's official web portal to all federal, state and local government web resources and services.